Location: Hannover
(52.3723°N, 9.7339°E)
Time: 19:38:52
(UTC+01:00)

ISS - Pass Details

Date: 16 November 2017
Orbit: 401 x 407 km, 51.6° (Epoch: 25 November)

Event Time Altitude Azimuth Distance (km) Brightness Sun altitude
Exits shadow 05:38:26 17° 193° (SSW) 1,103 -1.7 -18.9°
Drops below altitude 10° 05:39:56 10° 168° (SSE) 1,450 -0.8 -18.7°
Sets 05:42:23 0° 149° (SSE) 2,305 0.6 -18.3°
